• In Hungary
  • List of Countries
  • For 7 days
  • Water Temperature
  • Satellite Maps
  • Weather Map
  • News
  • Weather Widgets
  • user-avatar
    Login

    Hourly Weather Channagiri

    Today, 14 November, Wednesday

    Time Temperature Precipitation Wind Pressure Humidity
    00:00 +19°C° 0 mm 0 mps 701 mmHg 42%
    01:00 +19°C° 0 mm 0 mps 701 mmHg 44%
    02:00 +18°C° 0 mm 0 mps 701 mmHg 45%
    03:00 +18°C° 0 mm 0 mps 701 mmHg 45%
    04:00 +17°C° 0 mm 0 mps 701 mmHg 46%
    05:00 +17°C° 0 mm 0 mps 701 mmHg 54%
    06:00 +19°C° 0 mm 0 mps 701 mmHg 51%
    07:00 +21°C° 0 mm 0 mps 702 mmHg 48%
    08:00 +22°C° 0 mm 0 mps 703 mmHg 45%
    09:00 +26°C° 0 mm 1 mps 703 mmHg 40%
    10:00 +28°C° 0 mm 1 mps 703 mmHg 36%
    11:00 +30°C° 0 mm 2 mps 703 mmHg 30%
    12:00 +30°C° 0 mm 2 mps 703 mmHg 28%
    13:00 +31°C° 0 mm 2 mps 702 mmHg 27%
    14:00 +31°C° 0 mm 2 mps 702 mmHg 26%
    15:00 +30°C° 0 mm 2 mps 701 mmHg 30%
    16:00 +29°C° 0 mm 2 mps 701 mmHg 35%
    17:00 +27°C° 0 mm 1 mps 701 mmHg 39%
    18:00 +26°C° 0 mm 2 mps 701 mmHg 40%
    19:00 +25°C° 0 mm 2 mps 701 mmHg 40%
    20:00 +23°C° 0 mm 2 mps 702 mmHg 41%
    21:00 +23°C° 0 mm 2 mps 702 mmHg 42%
    22:00 +22°C° 0 mm 1 mps 702 mmHg 43%
    23:00 +22°C° 0 mm 1 mps 702 mmHg 44%

    Tomorrow, 15 November, Thursday

    Time Temperature Precipitation Wind Pressure Humidity
    00:00 +21°C° 0 mm 1 mps 701 mmHg 45%
    01:00 +21°C° 0 mm 1 mps 701 mmHg 46%
    02:00 +21°C° 0 mm 1 mps 701 mmHg 47%
    03:00 +20°C° 0 mm 1 mps 701 mmHg 48%
    04:00 +20°C° 0 mm 1 mps 701 mmHg 49%
    05:00 +20°C° 0 mm 1 mps 701 mmHg 50%
    06:00 +21°C° 0 mm 1 mps 702 mmHg 49%
    07:00 +23°C° 0 mm 2 mps 703 mmHg 48%
    08:00 +24°C° 0 mm 2 mps 703 mmHg 47%
    09:00 +26°C° 0 mm 3 mps 703 mmHg 43%
    10:00 +28°C° 0 mm 4 mps 704 mmHg 39%
    11:00 +30°C° 0 mm 5 mps 704 mmHg 35%
    12:00 +32°C° 0 mm 5 mps 703 mmHg 36%
    13:00 +32°C° 0 mm 5 mps 703 mmHg 36%
    14:00 +33°C° 0 mm 5 mps 702 mmHg 36%
    15:00 +30°C° 0 mm 4 mps 702 mmHg 42%
    16:00 +29°C° 0 mm 4 mps 702 mmHg 48%
    17:00 +28°C° 0 mm 3 mps 701 mmHg 53%
    18:00 +27°C° 0 mm 3 mps 702 mmHg 55%
    19:00 +26°C° 0 mm 3 mps 702 mmHg 56%
    20:00 +25°C° 0 mm 2 mps 702 mmHg 58%
    21:00 +25°C° 0 mm 3 mps 702 mmHg 59%
    22:00 +24°C° 0 mm 3 mps 702 mmHg 60%
    23:00 +24°C° 0 mm 3 mps 702 mmHg 61%

    Day after tomorrow, 16 November, Friday

    Time Temperature Precipitation Wind Pressure Humidity
    00:00 +24°C° 0 mm 3 mps 702 mmHg 63%
    01:00 +22°C° 0 mm 3 mps 702 mmHg 66%
    02:00 +22°C° 0 mm 3 mps 702 mmHg 68%
    03:00 +21°C° 0 mm 3 mps 702 mmHg 73%
    04:00 +21°C° 0 mm 2 mps 702 mmHg 79%
    05:00 +21°C° 0 mm 2 mps 702 mmHg 84%
    06:00 +22°C° 0 mm 3 mps 702 mmHg 82%
    07:00 +23°C° 0 mm 4 mps 703 mmHg 81%
    08:00 +24°C° 0 mm 6 mps 703 mmHg 79%
    09:00 +26°C° 0 mm 6 mps 703 mmHg 75%
    10:00 +27°C° 0 mm 6 mps 703 mmHg 71%
    11:00 +28°C° 0 mm 7 mps 703 mmHg 67%
    12:00 +29°C° 0 mm 7 mps 703 mmHg 65%
    13:00 +29°C° 0 mm 6 mps 702 mmHg 63%
    14:00 +29°C° 0 mm 6 mps 702 mmHg 61%
    15:00 +29°C° 0 mm 5 mps 702 mmHg 64%
    16:00 +28°C° 0 mm 4 mps 701 mmHg 67%
    17:00 +27°C° 0 mm 4 mps 701 mmHg 70%
    18:00 +27°C° 0 mm 4 mps 702 mmHg 72%
    19:00 +26°C° 0 mm 4 mps 702 mmHg 74%
    20:00 +25°C° 0 mm 4 mps 702 mmHg 77%
    21:00 +25°C° 0 mm 4 mps 702 mmHg 79%
    22:00 +25°C° 0 mm 4 mps 702 mmHg 82%
    23:00 +23°C° 0 mm 4 mps 702 mmHg 85%

    17 November, Saturday

    Time Temperature Precipitation Wind Pressure Humidity
    00:00 +23°C° 0 mm 4 mps 702 mmHg 87%
    01:00 +23°C° 0 mm 4 mps 702 mmHg 89%
    02:00 +22°C° 0 mm 4 mps 701 mmHg 91%
    03:00 +22°C° 0 mm 4 mps 701 mmHg 91%
    04:00 +22°C° 0 mm 4 mps 701 mmHg 92%
    05:00 +22°C° 0 mm 4 mps 701 mmHg 92%
    06:00 +22°C° 0 mm 4 mps 702 mmHg 88%
    07:00 +23°C° 0 mm 5 mps 702 mmHg 84%
    08:00 +25°C° 0 mm 5 mps 703 mmHg 79%
    09:00 +26°C° 0 mm 6 mps 703 mmHg 74%
    10:00 +28°C° 0 mm 6 mps 703 mmHg 68%
    11:00 +29°C° 0 mm 6 mps 703 mmHg 63%
    12:00 +29°C° 0.5 mm 6 mps 702 mmHg 62%
    13:00 +30°C° 0.5 mm 5 mps 702 mmHg 61%
    14:00 +30°C° 0.5 mm 5 mps 701 mmHg 61%
    15:00 +29°C° 1 mm 4 mps 701 mmHg 65%
    16:00 +28°C° 1 mm 3 mps 701 mmHg 68%
    17:00 +27°C° 1 mm 3 mps 701 mmHg 72%
    18:00 +27°C° 0.2 mm 2 mps 701 mmHg 74%
    19:00 +26°C° 0.2 mm 2 mps 702 mmHg 76%
    20:00 +26°C° 0.2 mm 2 mps 702 mmHg 78%
    21:00 +25°C° 0 mm 2 mps 702 mmHg 79%
    22:00 +25°C° 0 mm 2 mps 702 mmHg 80%
    23:00 +25°C° 0 mm 3 mps 702 mmHg 81%

    18 November, Sunday

    Time Temperature Precipitation Wind Pressure Humidity
    00:00 +24°C° 0 mm 3 mps 702 mmHg 84%
    01:00 +24°C° 0 mm 3 mps 701 mmHg 86%
    02:00 +22°C° 0 mm 3 mps 701 mmHg 88%
    03:00 +23°C° 0 mm 2 mps 701 mmHg 89%
    04:00 +23°C° 0 mm 2 mps 701 mmHg 91%
    05:00 +23°C° 0 mm 2 mps 701 mmHg 92%
    06:00 +24°C° 0 mm 3 mps 702 mmHg 88%
    07:00 +25°C° 0 mm 3 mps 703 mmHg 83%
    08:00 +26°C° 0 mm 4 mps 703 mmHg 79%
    09:00 +27°C° 0 mm 4 mps 703 mmHg 72%
    10:00 +29°C° 0 mm 4 mps 703 mmHg 66%
    11:00 +30°C° 0 mm 5 mps 703 mmHg 59%
    12:00 +32°C° 0.1 mm 5 mps 703 mmHg 58%
    13:00 +32°C° 0.1 mm 4 mps 702 mmHg 57%
    14:00 +32°C° 0.1 mm 4 mps 701 mmHg 56%
    15:00 +30°C° 0.5 mm 4 mps 701 mmHg 59%
    16:00 +30°C° 0.5 mm 3 mps 701 mmHg 63%
    17:00 +29°C° 0.5 mm 3 mps 701 mmHg 67%
    18:00 +28°C° 1.3 mm 3 mps 702 mmHg 71%
    19:00 +27°C° 1.3 mm 4 mps 702 mmHg 75%
    20:00 +26°C° 1.3 mm 4 mps 703 mmHg 79%
    21:00 +25°C° 0.8 mm 4 mps 703 mmHg 82%
    22:00 +25°C° 0.8 mm 4 mps 703 mmHg 84%
    23:00 +23°C° 0.8 mm 5 mps 703 mmHg 87%

    19 November, Monday

    Time Temperature Precipitation Wind Pressure Humidity
    00:00 +23°C° 0.6 mm 4 mps 702 mmHg 88%
    01:00 +23°C° 0.6 mm 4 mps 702 mmHg 89%
    02:00 +23°C° 0.6 mm 4 mps 701 mmHg 91%
    03:00 +24°C° 0.6 mm 3 mps 702 mmHg 92%
    04:00 +22°C° 0.6 mm 3 mps 702 mmHg 92%
    05:00 +22°C° 0.6 mm 3 mps 702 mmHg 93%
    06:00 +24°C° 0.3 mm 3 mps 703 mmHg 91%
    07:00 +24°C° 0.3 mm 3 mps 703 mmHg 90%
    08:00 +24°C° 0.3 mm 3 mps 704 mmHg 88%
    09:00 +26°C° 0.1 mm 4 mps 704 mmHg 81%
    10:00 +27°C° 0.1 mm 4 mps 704 mmHg 73%
    11:00 +28°C° 0.1 mm 4 mps 704 mmHg 66%
    12:00 +29°C° 0.1 mm 4 mps 703 mmHg 62%
    13:00 +30°C° 0.1 mm 4 mps 703 mmHg 58%
    14:00 +32°C° 0.1 mm 4 mps 702 mmHg 54%
    15:00 +30°C° 1.3 mm 4 mps 702 mmHg 61%
    16:00 +28°C° 1.3 mm 3 mps 702 mmHg 68%
    17:00 +27°C° 1.3 mm 3 mps 702 mmHg 74%
    18:00 +26°C° 2.2 mm 3 mps 703 mmHg 77%
    19:00 +26°C° 2.2 mm 4 mps 703 mmHg 80%
    20:00 +25°C° 2.2 mm 4 mps 704 mmHg 82%
    21:00 +25°C° 1 mm 4 mps 704 mmHg 84%
    22:00 +23°C° 1 mm 4 mps 704 mmHg 85%
    23:00 +23°C° 1 mm 4 mps 704 mmHg 87%
    Show more